[[[{"header":{"parameterUnit":"kt","parameterCategory":2,"dx":1,"dy":1,"la1":30.253999710083008,"la2":30.299108505249023,"lo1":-89.0895004272461,"lo2":-89.04439544677734,"nx":28,"ny":28,"refTime":"2022-10-17T21:00:00:Z","depth":0,"parameterNumber":1,"parameterNumberName":"U-component_of_WINDS"},"data":[2.7353,2.7369,2.7359,2.7374,2.7367,2.7375,2.7375,2.7373,2.7369,2.7378,2.7381,2.7373,2.7364,2.7366,2.7369,2.7365,2.7366,2.7381,2.7374,2.7317,2.7309,2.7301,2.7295,2.7382,2.7382,2.7433,2.7433,2.7434,2.7317,2.7311,2.7315,2.7312,2.7316,2.7296,2.7292,2.7296,2.7304,2.7299,2.7301,2.7307,2.7311,2.7297,2.7298,2.7306,2.7296,2.7308,2.7306,2.7305,2.7245,2.724,2.7316,2.7316,2.7316,2.7316,2.7316,2.7316,2.725,2.726,2.7251,2.7255,2.725,2.7248,2.7256,2.7244,2.7248,2.7247,2.7233,2.7241,2.7233,2.7228,2.7224,2.723,2.7215,2.7223,2.7225,2.7227,2.7232,2.7162,2.723,2.7229,2.7229,2.7229,2.7229,0,2.7196,2.7187,2.7189,2.7188,2.719,2.7189,2.7185,2.7189,2.7163,2.7167,2.7172,2.7172,2.7174,2.7177,2.7175,2.7167,2.7145,2.7141,2.7147,2.7153,2.7161,2.7157,2.706,2.7138,2.7138,2.7137,2.7137,2.7136,2.7127,2.7139,2.7123,2.7127,2.7121,2.7126,2.7127,2.7102,2.7104,2.7096,2.7106,2.7108,2.7108,2.7117,2.7101,2.7101,2.709,2.7122,2.7089,2.7097,2.709,2.7089,2.709,2.7127,2.7129,2.7129,2.713,0,2.7089,2.7069,2.7084,2.7066,2.7062,2.7076,2.7061,2.7069,2.7055,2.7065,2.7066,2.7043,2.7048,2.7026,2.7026,2.7014,2.7039,2.7028,2.7042,2.7039,2.7065,2.7062,2.7152,2.7163,2.7073,2.7074,2.7075,0,2.7021,2.7038,2.7007,2.7016,2.7035,2.7008,2.7027,2.7016,2.7007,2.7014,2.6985,2.6992,2.6962,2.6967,2.695,2.6966,2.6966,2.6957,2.6952,2.6959,2.696,2.6958,2.6953,2.694,2.694,2.6939,2.6939,0,2.6962,2.6964,2.698,2.6977,2.6958,2.6966,2.6958,2.6947,2.6947,2.6944,2.6944,2.6942,2.694,2.694,2.6917,2.6896,2.6936,2.6903,2.6928,2.6928,2.6935,2.6935,2.7022,2.6938,2.6938,2.6938,2.6938,0,2.6903,2.69,2.6925,2.6908,2.691,2.692,2.6915,2.6919,2.6908,2.6898,2.6894,2.6871,2.6882,2.6851,2.6867,2.6847,2.6848,2.684,2.6842,2.6839,2.6804,2.6855,2.6941,2.6949,2.6841,2.684,2.684,0,2.6842,2.6861,2.6837,2.6861,2.6866,2.6832,2.6843,2.6834,2.682,2.6823,2.6807,2.681,2.6782,2.6779,2.679,2.6773,2.6801,2.6769,2.6773,2.6774,2.6777,2.6856,2.6874,2.6926,2.6829,2.683,2.6831,0,2.6791,2.6766,2.6771,2.6766,2.6749,2.6752,2.6765,2.6761,2.6764,2.6756,2.6766,2.6769,2.6747,2.6743,2.6722,2.6735,2.6782,2.6709,2.6708,2.6723,2.6821,2.6838,2.6847,2.6765,2.6767,2.6768,2.6822,0,2.6706,2.6712,2.6726,2.6714,2.6713,2.6726,2.6699,2.6702,2.6683,2.6666,2.6679,2.6664,2.6658,2.6662,2.6642,2.6678,2.6667,2.6644,2.6609,2.6662,2.6679,2.6686,2.6586,2.6585,2.6584,2.6583,0,0,2.6652,2.6659,2.663,2.6639,2.6636,2.6598,2.6614,2.6607,2.6592,2.6591,2.6572,2.6573,2.656,2.6578,2.6592,2.659,2.6594,2.6575,2.6637,2.6643,2.6649,2.6668,2.6676,2.6582,2.6581,2.6581,2.658,0,2.6615,2.6603,2.6619,2.661,2.6595,2.6576,2.658,2.6558,2.6548,2.6559,2.6526,2.653,2.653,2.6521,2.6517,2.6574,2.6547,2.6574,2.6614,2.6628,2.6636,2.6642,2.6663,2.667,2.6578,2.6578,2.6578,0,2.6559,2.6543,2.6547,2.6537,2.6526,2.6532,2.649,2.6497,2.65,2.6455,2.6466,2.6454,2.6439,2.6459,2.6466,2.6449,2.6507,2.6483,2.6488,2.6488,2.65,2.6509,2.6517,2.6411,2.6411,2.6411,0,0,2.653,2.6534,2.6507,2.6527,2.6522,2.6494,2.6493,2.6472,2.646,2.6454,2.6436,2.6425,2.6425,2.6425,2.6423,2.6449,2.6443,2.6464,2.6471,2.6478,2.6481,2.6495,2.6504,2.6409,2.6409,2.6409,0,0,2.6516,2.6485,2.6466,2.6486,2.6475,2.6449,2.6462,2.6439,2.6434,2.6429,2.6393,2.6388,2.6406,2.6394,2.6374,2.641,2.6377,2.6381,2.6417,2.6426,2.6434,2.6436,2.6327,0,0,0,0,0,2.6462,2.6489,2.6472,2.6471,2.6457,2.6458,2.6456,2.6427,2.6405,2.6417,2.6398,2.6369,2.6376,2.6358,2.6357,2.6379,2.6386,2.639,2.6394,2.6446,2.6456,2.6465,0,0,0,0,0,0,2.6461,2.646,2.6472,2.6447,2.6443,2.6457,2.6413,2.6406,2.6403,2.6397,2.6374,2.6368,2.6343,2.6356,2.6356,2.6377,2.6327,2.6388,2.6391,2.6394,2.645,2.6458,2.6465,0,0,0,0,0,2.646,2.6459,2.6444,2.6446,2.6443,2.6411,2.6411,2.6405,2.6402,2.6372,2.6366,2.6381,2.6345,2.6343,2.6356,2.6378,2.6326,2.6327,2.639,2.6393,2.6395,2.6454,0,0,0,0,0,0,2.646,2.6454,2.6442,2.644,2.6433,2.641,2.6405,2.6405,2.6377,2.6371,2.6377,2.6373,2.6346,2.6344,2.6343,2.638,2.6326,2.6326,2.6326,2.6392,2.6394,2.6396,0,0,0,0,0,0,2.6454,2.6452,2.6441,2.6426,2.6422,2.6409,2.6404,2.641,2.6377,2.6383,2.6379,2.6376,2.6348,2.6345,2.6344,2.6355,2.6326,2.6326,2.6326,2.6326,2.6394,2.6395,0,0,0,0,0,0,2.6453,2.6451,2.6427,2.6424,2.642,2.6395,2.6413,2.64,2.6365,2.6385,2.6361,2.6359,2.635,2.6348,2.6345,2.6357,2.6355,2.6326,2.6326,2.6326,2.6326,0,0,0,0,0,0,0,2.6452,2.6468,2.6454,2.6421,2.6418,2.6422,2.6421,2.6421,2.6364,2.6363,2.6361,2.636,2.6326,2.6326,2.6326,2.6359,0,0,2.6326,2.6326,0,0,0,0,0,0,0,0,2.6468,2.6468,2.6454,2.6454,2.6454,2.6422,2.6421,2.6421,2.6364,2.6363,2.6362,2.636,2.6326,2.6326,2.6326,0,0,0,0,0,0,0,0,0,0,0,0,0,0,0,2.6454,2.6454,0,2.6422,2.6421,2.6421,2.6364,2.6363,2.6362,2.6361,2.6326,2.6326,2.6326,0,0,0,0,0,0,0,0,0,0,0,0,0,0,0,0,0,0,0,0,0,0,0,0,0,0,0,0,0,0,0,0,0,0,0,0,0,0,0,0,0,0,0,0,0,0,0,0,0,0,0,0,0,0,0,0,0,0,0,0,0,0,0,0,0,0,0,0,0]}],[{"header":{"parameterUnit":"kt","parameterCategory":2,"dx":1,"dy":1,"la1":30.253999710083008,"la2":30.299108505249023,"lo1":-89.0895004272461,"lo2":-89.04439544677734,"nx":28,"ny":28,"refTime":"2022-10-17T21:00:00:Z","depth":0,"parameterNumber":2,"parameterNumberName":"V-component_of_WINDS"},"data":[-15.0883,-15.1165,-15.1189,-15.1519,-15.1596,-15.1823,-15.1911,-15.2026,-15.2123,-15.2392,-15.255,-15.2598,-15.2699,-15.2888,-15.3056,-15.3072,-15.314,-15.3224,-15.3227,-15.2841,-15.2788,-15.2738,-15.2673,-15.3239,-15.324,-15.3623,-15.3627,-15.3629,-15.0596,-15.0677,-15.086,-15.1052,-15.1207,-15.1142,-15.1286,-15.1419,-15.1622,-15.1743,-15.1901,-15.2138,-15.2326,-15.2399,-15.2581,-15.2707,-15.2683,-15.2754,-15.2743,-15.2759,-15.2347,-15.2279,-15.277,-15.277,-15.277,-15.277,-15.277,-15.277,-15.0079,-15.0248,-15.0378,-15.0576,-15.0679,-15.0806,-15.0968,-15.1026,-15.1201,-15.1399,-15.1389,-15.1618,-15.1738,-15.1967,-15.2048,-15.2223,-15.2146,-15.2228,-15.2249,-15.2268,-15.2288,-15.1727,-15.2254,-15.2253,-15.2252,-15.2251,-15.225,0,-14.9707,-14.9716,-14.9893,-15.0077,-15.0222,-15.0365,-15.05,-15.06,-15.062,-15.0763,-15.0971,-15.1094,-15.1333,-15.1527,-15.1702,-15.1768,-15.1707,-15.1704,-15.176,-15.1767,-15.1751,-15.176,-15.1085,-15.1687,-15.1682,-15.1679,-15.1676,-15.1675,-14.9184,-14.9379,-14.9526,-14.9647,-14.9726,-14.9921,-15.004,-15.0043,-15.0168,-15.0331,-15.0476,-15.0672,-15.0829,-15.1154,-15.121,-15.1388,-15.1359,-15.1586,-15.1384,-15.1384,-15.1358,-15.1346,-15.1363,-15.1624,-15.163,-15.1636,-15.164,0,-14.8886,-14.8924,-14.9232,-14.9357,-14.9394,-14.9596,-14.97,-14.9866,-14.9901,-15.0133,-15.0187,-15.0241,-15.0443,-15.0464,-15.0696,-15.07,-15.1023,-15.0993,-15.0981,-15.0975,-15.1179,-15.1158,-15.1842,-15.193,-15.1347,-15.1353,-15.1357,0,-14.8453,-14.8708,-14.8747,-14.8924,-14.9205,-14.9202,-14.9479,-14.9537,-14.9643,-14.9826,-14.9764,-14.9936,-14.9935,-15.0109,-15.0115,-15.0383,-15.0428,-15.0445,-15.0443,-15.0449,-15.0447,-15.051,-15.0481,-15.0434,-15.0431,-15.0428,-15.0425,0,-14.7981,-14.8301,-14.8589,-14.8667,-14.8824,-14.8958,-14.9029,-14.9147,-14.9263,-14.9416,-14.949,-14.9668,-14.9764,-14.99,-14.9906,-14.9768,-15.0235,-15.0046,-15.0252,-15.0252,-15.0352,-15.0345,-15.0949,-15.042,-15.042,-15.0418,-15.0417,0,-14.7634,-14.7796,-14.8209,-14.8337,-14.842,-14.8609,-14.8785,-14.8952,-14.9081,-14.9098,-14.9218,-14.9177,-14.9416,-14.9226,-14.9554,-14.9372,-14.9469,-14.9508,-14.9523,-14.9542,-14.9329,-14.9663,-15.0239,-15.0299,-14.9564,-14.9557,-14.955,0,-14.7083,-14.751,-14.751,-14.7901,-14.8101,-14.8018,-14.8226,-14.8343,-14.8384,-14.8555,-14.8597,-14.8791,-14.8655,-14.8718,-14.8878,-14.8927,-14.9164,-14.8896,-14.9134,-14.9143,-14.9101,-14.9633,-14.9712,-15.0112,-14.946,-14.9469,-14.9476,0,-14.6658,-14.6851,-14.6921,-14.7009,-14.7167,-14.7332,-14.7573,-14.7767,-14.7881,-14.8019,-14.8217,-14.8492,-14.8399,-14.8504,-14.8488,-14.8654,-14.9003,-14.8531,-14.8533,-14.8612,-14.9417,-14.9491,-14.9558,-14.8955,-14.8966,-14.8975,-14.9404,0,-14.6122,-14.634,-14.6532,-14.673,-14.6862,-14.7109,-14.7134,-14.7269,-14.7242,-14.7278,-14.7571,-14.767,-14.7863,-14.7946,-14.792,-14.8294,-14.8233,-14.8132,-14.7945,-14.8295,-14.8437,-14.8495,-14.7733,-14.7727,-14.7723,-14.7719,0,0,-14.5582,-14.5896,-14.5889,-14.6124,-14.6234,-14.6144,-14.6405,-14.6501,-14.6698,-14.6774,-14.6672,-14.7073,-14.7157,-14.7509,-14.762,-14.7699,-14.7766,-14.7643,-14.8129,-14.8175,-14.8218,-14.8369,-14.8429,-14.7711,-14.771,-14.7708,-14.7707,0,-14.5391,-14.5488,-14.5749,-14.585,-14.5998,-14.6025,-14.6088,-14.6217,-14.6252,-14.6541,-14.6458,-14.6635,-14.6956,-14.7056,-14.7148,-14.7603,-14.7527,-14.766,-14.7896,-14.8084,-14.8135,-14.8181,-14.834,-14.8397,-14.7696,-14.7696,-14.7697,0,-14.4975,-14.5074,-14.5203,-14.5454,-14.555,-14.5756,-14.557,-14.5797,-14.5948,-14.5832,-14.6119,-14.6177,-14.6312,-14.6643,-14.6792,-14.6702,-14.7307,-14.7121,-14.715,-14.7165,-14.7348,-14.741,-14.7465,-14.6735,-14.6732,-14.6729,0,0,-14.4806,-14.501,-14.5114,-14.5415,-14.5481,-14.5525,-14.5637,-14.5622,-14.5749,-14.58,-14.5872,-14.5995,-14.618,-14.6303,-14.6478,-14.6839,-14.6863,-14.7002,-14.7047,-14.7084,-14.712,-14.7312,-14.7373,-14.6716,-14.6716,-14.6715,0,0,-14.4723,-14.4857,-14.4809,-14.5162,-14.5288,-14.5407,-14.5588,-14.553,-14.5691,-14.5665,-14.5645,-14.5677,-14.5986,-14.6046,-14.587,-14.6411,-14.6227,-14.6269,-14.6361,-14.6418,-14.6463,-14.644,-14.5688,0,0,0,0,0,-14.4541,-14.4841,-14.4796,-14.4859,-14.5174,-14.5433,-14.5472,-14.5466,-14.5336,-14.5479,-14.553,-14.5443,-14.5947,-14.5791,-14.5851,-14.6046,-14.6549,-14.6579,-14.6607,-14.681,-14.6869,-14.692,0,0,0,0,0,0,-14.4565,-14.4643,-14.4788,-14.492,-14.499,-14.5422,-14.52,-14.5206,-14.532,-14.53,-14.5436,-14.5447,-14.5443,-14.5759,-14.5814,-14.5999,-14.5669,-14.6561,-14.6586,-14.6608,-14.683,-14.6879,-14.6921,0,0,0,0,0,-14.4585,-14.4647,-14.5155,-14.4915,-14.4977,-14.504,-14.5189,-14.5192,-14.528,-14.5359,-14.5367,-14.5265,-14.5449,-14.5494,-14.5792,-14.5974,-14.5632,-14.5652,-14.6577,-14.6597,-14.6614,-14.6854,0,0,0,0,0,0,-14.4599,-14.4651,-14.5167,-14.5185,-14.4802,-14.5015,-14.5049,-14.518,-14.5331,-14.5343,-14.5185,-14.5167,-14.5456,-14.549,-14.5525,-14.5967,-14.5601,-14.5622,-14.5635,-14.6592,-14.6608,-14.6621,0,0,0,0,0,0,-14.4617,-14.4667,-14.5176,-14.5033,-14.5035,-14.4993,-14.5023,-14.5274,-14.5334,-14.5148,-14.5138,-14.5175,-14.5401,-14.5489,-14.5516,-14.5908,-14.5577,-14.5597,-14.5611,-14.562,-14.6605,-14.6617,0,0,0,0,0,0,-14.4638,-14.4681,-14.5028,-14.503,-14.5031,-14.5234,-14.5214,-14.5535,-14.5216,-14.5142,-14.5187,-14.5174,-14.5403,-14.543,-14.551,-14.5892,-14.5904,-14.5578,-14.5591,-14.5601,-14.5607,0,0,0,0,0,0,0,-14.4655,-14.4371,-14.5059,-14.5027,-14.5027,-14.5353,-14.5358,-14.5363,-14.5214,-14.5202,-14.519,-14.5179,-14.5464,-14.5486,-14.5508,-14.5878,0,0,-14.5576,-14.5586,0,0,0,0,0,0,0,0,-14.4353,-14.4366,-14.506,-14.5064,-14.5067,-14.5354,-14.5358,-14.5362,-14.5212,-14.5202,-14.5193,-14.5184,-14.547,-14.5487,-14.5505,0,0,0,0,0,0,0,0,0,0,0,0,0,0,0,-14.506,-14.5063,0,-14.5355,-14.5358,-14.5361,-14.521,-14.5202,-14.5195,-14.5187,-14.5475,-14.5489,-14.5504,0,0,0,0,0,0,0,0,0,0,0,0,0,0,0,0,0,0,0,0,0,0,0,0,0,0,0,0,0,0,0,0,0,0,0,0,0,0,0,0,0,0,0,0,0,0,0,0,0,0,0,0,0,0,0,0,0,0,0,0,0,0,0,0,0,0,0,0,0]}]]]